Wind_Speed
4 3 2 2 1 1 3 4 7 9 11 13 15 16 17 18 18 18 18 16 15 13 11 9 7 6 5 5 5 5 6 6 7 8 9 10 9 7 7 7 6 5 5 4 5 9 10 10 11 10 9 7 5 5 5 5 4 5 10 11 12 14 11 9 12 11 9 8 7 7 5 5 8 7 5 5 4 3 2 4 5 6 7 8 8 8 7 6
4 3 3 2 2 1 1 0 1 2 4 6 9 11 13 16 18 19 20 20 18 17 15 13 10 8 7 6 6 6 6 6 7 8 8 8 7 6 5 5 6 7 8 8 5 7 8 9 10 10 10 8 6 6 7 7 5 5 8 8 11 14 10 8 12 12 10 9 9 8 6 6 7 7 4 4 3 3 5 5 4 4 5 6 8 9 7 7
5 5 4 3 2 2 1 1 1 1 1 1 2 4 6 8 12 16 19 21 21 20 19 17 14 11 9 7 6 6 6 6 7 9 9 7 7 7 7 7 7 9 12 10 7 7 8 8 9 10 10 10 8 6 7 7 6 5 4 4 10 12 9 9 11 12 12 11 11 10 7 6 5 5 3 3 3 3 5 4 5 5 4 5 6 7 8 8
6 5 4 4 3 2 2 1 1 2 2 2 2 2 1 2 4 8 13 18 22 22 21 20 18 15 12 9 7 6 6 6 7 9 9 8 8 10 10 11 11 12 12 10 7 8 8 8 9 9 10 10 9 7 7 7 6 5 4 4 7 9 8 9 10 12 13 12 13 11 9 8 7 5 3 2 3 4 5 4 4 5 4 4 4 5 8 8
6 6 5 4 3 3 2 2 2 2 3 3 4 3 3 2 1 2 5 11 17 22 23 22 21 19 16 13 9 7 7 5 5 8 9 9 11 12 12 13 14 14 11 9 8 8 8 8 8 9 9 10 9 7 7 7 6 5 4 4 5 6 8 9 9 12 13 13 13 12 11 10 9 6 5 4 1 3 6 5 4 4 4 3 2 3 8 8
7 6 6 5 4 4 3 2 2 2 3 3 4 4 4 3 2 2 2 4 10 17 22 24 23 22 19 17 12 9 8 5 4 8 10 10 11 13 12 11 11 12 10 8 8 8 8 7 7 7 8 9 9 7 7 7 7 5 4 3 5 6 10 11 11 12 13 14 14 13 12 11 9 7 7 6 2 1 3 4 3 3 4 2 1 2 6 7
8 7 7 6 5 5 4 3 3 3 3 3 3 4 4 4 4 3 2 2 4 11 19 23 24 23 22 20 16 13 10 6 3 6 10 10 11 13 13 11 10 9 9 7 7 8 7 6 6 6 6 7 7 7 7 8 7 6 4 2 4 6 9 12 13 13 13 14 15 15 13 11 10 9 9 7 4 2 1 2 2 0 2 3 2 3 6 7
8 8 7 7 6 5 5 4 3 3 3 3 3 3 4 4 4 3 3 3 2 6 13 20 23 23 23 23 20 17 13 8 5 6 8 10 10 11 13 13 11 9 8 7 6 5 5 5 5 6 6 7 6 6 7 7 7 7 5 3 2 5 8 10 13 13 13 14 16 16 13 11 10 11 11 8 6 4 1 2 3 1 2 3 2 5 8 8
8 8 8 7 7 6 5 5 4 4 3 3 3 3 3 3 3 3 3 3 2 2 9 15 20 22 23 23 23 20 16 11 8 8 8 9 11 11 12 13 11 10 9 7 6 4 3 2 3 5 7 7 6 7 7 6 6 6 6 5 3 3 7 8 10 13 13 13 15 15 14 13 12 12 12 10 8 5 3 3 4 3 3 3 3 7 9 8
8 8 7 7 7 7 7 6 5 4 4 3 3 3 3 3 3 3 3 3 3 1 5 11 16 19 21 22 23 21 19 16 13 10 8 8 11 11 12 12 12 11 9 8 7 4 2 0 2 3 5 5 6 7 6 5 5 5 6 6 6 3 4 6 7 10 12 12 13 14 15 14 13 13 12 12 10 7 5 4 4 4 5 3 5 9 10 9
9 9 8 8 7 7 7 7 6 5 5 4 4 4 4 4 3 3 3 3 2 1 2 8 12 15 18 20 21 21 20 19 17 15 11 9 10 11 12 12 12 13 10 9 8 5 2 1 1 1 3 3 5 6 6 5 4 4 5 5 5 4 1 3 5 7 9 11 12 14 15 15 14 14 13 13 12 8 6 4 3 5 6 5 5 8 10 10
9 9 10 9 9 8 7 7 7 6 6 5 4 4 4 4 3 3 3 3 2 1 1 5 10 12 14 16 17 20 21 21 21 20 16 13 11 10 12 12 13 14 12 11 9 6 4 3 3 4 2 2 3 5 6 5 5 6 7 6 6 5 3 1 2 4 7 10 12 14 15 15 14 14 14 14 13 9 7 5 3 5 6 6 5 6 8 8
10 10 10 10 10 10 9 8 7 7 7 6 5 5 5 4 4 3 3 3 2 1 1 4 8 11 12 13 15 18 21 22 23 22 19 17 14 11 10 11 13 14 15 14 11 9 8 6 6 6 4 3 3 4 5 6 6 8 9 9 9 8 6 4 3 2 5 8 11 13 15 14 13 14 15 15 14 11 8 7 5 5 6 6 5 5 6 7
11 11 10 10 10 11 11 10 9 8 8 7 6 6 6 5 4 4 3 3 2 2 2 4 8 10 11 11 13 17 20 22 23 23 21 19 17 14 11 11 12 15 17 16 12 10 11 10 9 8 6 5 4 5 6 7 9 9 10 10 10 9 7 6 5 4 5 7 8 12 15 13 11 14 16 16 15 12 9 7 6 5 5 7 5 4 5 6
12 12 11 11 10 10 11 12 12 10 9 8 7 7 6 6 5 4 4 3 3 3 3 5 8 10 10 10 10 12 17 18 19 21 22 21 19 17 15 13 13 15 18 16 13 13 13 12 11 10 10 8 6 6 7 9 10 10 9 9 9 9 8 8 7 6 6 6 6 9 12 10 10 15 17 17 16 13 10 8 7 6 5 6 6 4 4 5
14 13 13 12 11 10 10 12 13 13 11 10 9 8 8 7 7 6 5 3 3 3 4 5 8 10 10 10 10 10 13 14 16 19 21 22 22 21 19 17 14 15 17 15 16 16 15 16 14 13 13 10 7 7 9 11 13 12 10 8 9 10 10 9 8 7 9 8 6 8 9 7 10 16 18 17 16 13 10 9 9 8 6 5 5 5 4 4
15 15 14 14 13 12 11 11 13 14 14 12 11 10 10 9 9 9 8 5 4 3 5 7 8 10 10 10 12 12 13 14 14 17 20 20 21 22 22 20 17 16 15 14 16 17 18 19 17 15 16 14 10 9 10 12 12 9 8 9 10 12 13 12 10 9 11 11 8 8 9 7 9 15 18 17 16 15 12 10 9 10 9 7 6 5 5 3
16 16 15 15 15 13 12 12 12 14 15 14 13 12 11 11 11 11 10 8 6 4 6 8 10 11 9 11 14 15 15 15 13 15 18 20 21 22 24 23 21 18 16 15 16 17 19 20 19 18 18 17 15 15 13 9 5 6 10 14 16 16 17 16 14 12 12 13 11 9 7 8 9 13 17 18 17 17 14 11 11 12 11 9 8 6 4 3
16 16 16 16 16 15 14 13 13 14 16 16 14 13 13 13 12 12 11 9 8 6 6 9 12 12 10 12 17 17 15 14 13 14 18 22 23 23 24 25 24 21 19 17 15 16 18 20 20 20 21 20 17 17 16 12 11 14 17 19 19 20 19 18 17 14 13 15 14 11 5 6 10 11 14 18 18 18 16 15 15 15 14 12 10 8 5 4
16 16 16 16 16 16 15 14 14 15 16 18 16 14 13 13 13 14 13 11 10 8 8 11 13 13 12 13 17 17 13 12 11 11 14 20 23 24 24 25 25 24 22 19 16 16 17 19 21 23 22 19 17 15 15 16 17 19 19 18 19 21 19 16 16 14 13 13 12 10 6 7 11 11 13 17 19 19 19 18 18 17 16 14 11 9 6 5
16 16 16 16 17 17 15 15 15 15 16 18 17 16 14 13 14 14 14 12 11 11 9 11 14 15 15 16 18 18 14 12 12 12 13 17 22 23 25 26 26 26 24 21 19 17 18 21 23 23 20 16 14 14 14 15 16 16 17 19 20 21 18 16 15 13 10 11 10 8 8 9 11 12 13 16 17 17 18 19 19 19 18 16 13 11 8 6
16 16 16 16 17 17 16 15 15 15 16 17 17 17 15 14 14 13 14 11 8 12 10 10 14 15 17 18 19 19 16 14 14 14 12 14 19 21 25 27 27 26 24 23 21 18 20 24 23 20 17 14 14 14 14 14 15 16 17 19 21 20 18 16 14 11 9 10 10 9 9 9 10 13 14 15 14 14 17 19 20 20 21 19 16 14 12 10
16 16 16 16 16 17 16 15 15 15 15 16 16 16 15 15 15 14 15 12 7 10 13 12 11 12 18 20 20 19 17 14 14 14 12 12 14 16 22 25 26 26 25 25 24 20 21 23 21 18 15 13 14 14 13 13 15 16 17 19 21 19 18 18 14 9 10 12 11 11 10 9 11 15 16 14 13 12 15 19 21 22 22 21 18 16 15 14
17 16 16 16 16 17 16 15 15 15 15 15 15 15 14 13 14 15 16 16 10 8 11 12 9 9 16 21 21 18 15 14 16 14 11 11 11 11 17 20 22 25 25 26 25 25 25 20 16 16 15 15 15 13 13 13 15 15 16 18 19 17 16 17 13 9 11 14 14 12 11 12 13 15 16 15 14 13 14 17 20 21 22 21 20 18 17 16
17 16 16 15 16 17 16 15 15 15 15 14 14 13 12 10 11 13 14 16 14 9 10 12 9 8 16 21 21 18 14 13 15 14 10 9 8 8 11 14 19 23 23 24 24 27 29 23 16 14 14 14 14 14 14 13 14 16 14 14 15 14 13 14 12 10 13 16 16 12 8 8 10 12 13 16 16 15 15 16 17 19 20 21 21 20 19 18
17 17 16 15 15 15 17 16 14 15 14 13 12 11 10 8 8 10 12 15 15 10 9 12 11 11 17 19 17 17 15 13 14 14 12 11 9 8 9 13 16 19 20 20 22 27 29 25 20 15 12 12 13 15 14 11 15 16 10 7 9 10 10 11 12 12 13 13 13 14 11 6 8 9 10 14 16 16 17 16 16 17 18 19 20 20 20 19
18 17 16 15 14 13 15 16 14 14 14 13 12 10 8 7 7 8 9 10 10 7 7 9 12 13 16 15 14 18 15 13 18 17 14 13 13 11 10 12 14 15 18 18 19 24 27 25 20 15 12 12 13 14 12 10 14 15 10 7 9 9 8 8 10 15 15 9 7 15 17 10 11 12 10 12 15 17 18 17 15 15 15 15 17 19 20 20
20 18 16 15 14 13 14 15 15 14 13 13 12 10 7 6 6 6 4 3 2 3 4 7 11 13 16 16 16 17 12 13 18 16 15 13 14 13 10 10 10 11 16 18 20 21 22 21 17 13 11 11 11 11 10 10 13 13 10 10 10 9 8 7 8 16 16 8 6 13 16 9 10 14 11 11 14 16 18 17 15 14 13 13 14 17 20 21
20 19 16 15 14 14 13 15 15 13 13 13 12 10 8 7 5 3 1 1 2 3 3 6 9 12 17 19 19 16 10 13 16 14 16 16 15 15 13 9 8 10 13 16 19 18 17 16 13 12 12 10 8 6 7 9 11 11 9 10 10 7 8 7 8 14 13 6 7 12 13 8 7 13 12 11 13 12 12 14 14 14 14 13 14 16 20 23
20 20 17 15 14 14 13 14 14 12 12 13 12 11 10 9 8 4 3 3 4 4 4 7 9 12 19 21 20 18 12 13 15 14 17 18 15 15 15 12 11 12 14 15 18 17 15 15 14 14 13 11 7 4 4 6 9 10 9 10 7 3 5 7 8 11 6 4 9 10 12 10 5 8 9 8 7 7 8 10 12 15 15 15 15 17 20 23
20 20 19 16 14 14 13 13 12 11 12 13 12 11 12 12 10 6 3 5 5 3 4 9 10 12 19 22 20 19 15 13 14 16 18 19 18 17 17 17 15 14 14 16 18 18 18 18 17 16 15 12 9 7 6 6 8 10 10 10 6 3 4 5 6 6 3 3 7 8 11 12 9 9 9 7 7 10 11 9 8 11 14 16 18 19 22 24
19 20 19 17 15 13 12 12 10 10 11 13 12 13 15 13 12 11 7 4 4 4 5 9 11 12 17 22 21 18 18 16 15 16 18 18 19 20 18 18 18 15 14 17 18 17 19 19 18 18 17 15 12 11 10 8 8 10 10 10 7 3 4 2 1 2 3 6 7 7 6 10 13 14 12 12 13 13 12 10 9 9 12 15 20 22 24 26
19 19 17 17 15 13 11 10 8 10 11 13 14 16 18 12 9 16 15 6 3 6 6 6 9 11 15 21 23 20 19 18 17 15 14 16 17 19 18 18 19 17 13 14 17 18 17 18 19 20 19 17 16 15 13 10 10 11 11 11 9 4 4 1 2 1 4 7 9 9 5 5 11 13 12 14 14 11 10 10 10 11 12 14 18 23 25 27
20 20 17 16 14 12 11 9 8 10 11 15 16 17 20 14 8 11 14 11 8 8 7 4 5 9 13 18 21 23 23 21 19 16 15 16 17 19 21 20 20 19 17 13 13 15 13 13 18 22 18 17 19 17 14 11 11 12 12 12 12 8 4 3 4 3 4 3 5 8 5 4 7 6 6 8 7 8 9 10 10 11 12 11 12 18 24 26
19 20 17 15 13 11 10 8 8 10 11 15 18 20 24 21 13 7 6 9 13 12 9 6 5 7 12 16 17 21 23 21 20 20 19 19 20 20 21 21 20 20 20 16 11 12 12 11 14 18 18 16 16 15 14 14 13 13 14 15 15 12 8 6 5 5 4 3 4 7 6 7 8 7 7 6 6 8 9 9 9 9 9 8 7 11 19 21
17 19 17 16 14 11 9 8 8 10 12 15 19 24 26 22 14 7 5 7 11 14 14 11 9 9 10 12 15 19 22 22 21 22 22 23 24 23 22 20 20 21 21 19 14 10 11 12 11 14 16 16 15 14 14 16 14 12 16 19 16 13 10 8 5 3 2 1 2 4 6 9 9 7 8 7 7 8 8 7 7 8 7 6 5 4 12 16
15 17 16 16 14 11 9 8 8 10 11 14 19 23 24 21 16 10 8 8 9 10 10 8 8 9 7 6 9 16 20 21 22 21 22 23 22 24 25 22 20 20 18 18 17 12 10 10 10 12 13 14 16 17 16 16 15 13 15 17 16 11 9 7 3 2 2 0 3 3 6 10 8 4 4 5 4 4 4 4 6 7 7 6 4 2 6 13
14 15 15 14 12 10 8 7 8 10 12 15 19 21 21 21 20 15 10 10 9 7 7 6 5 6 6 4 4 8 15 21 22 21 22 21 18 19 22 21 20 20 18 17 17 14 11 9 7 9 10 11 15 19 18 16 17 17 14 12 11 8 8 9 4 1 1 1 2 3 6 10 10 8 5 2 1 0 2 3 5 7 6 6 3 2 4 9
14 13 13 12 11 10 8 6 7 9 12 14 17 19 19 20 21 19 17 15 13 12 12 11 8 7 6 5 3 4 8 14 20 22 21 21 20 18 16 14 14 16 18 20 19 17 14 11 6 3 4 5 10 15 17 17 17 18 14 12 12 8 7 10 7 4 3 2 1 2 4 6 7 7 5 2 3 1 2 2 4 6 5 5 4 1 3 7
14 12 12 12 11 9 8 8 8 8 11 13 15 16 17 17 17 18 19 19 19 19 18 16 13 11 10 7 5 4 4 7 13 20 22 22 22 20 17 14 12 12 14 19 22 21 18 15 11 6 3 3 10 14 18 19 19 20 17 15 16 13 9 8 8 7 4 3 3 1 3 5 5 4 4 5 5 3 1 2 3 3 4 4 4 3 1 5
14 12 12 12 11 10 9 9 9 9 10 11 13 14 15 16 17 16 15 17 19 20 20 19 16 15 13 10 7 6 6 7 9 14 19 23 24 21 18 15 12 10 11 14 21 24 22 20 18 15 10 7 9 13 17 17 17 19 20 17 17 17 13 7 5 8 6 3 3 4 2 6 5 3 5 7 6 5 2 1 2 1 2 3 4 3 1 3
13 13 11 11 11 11 11 11 10 10 11 11 12 13 13 15 16 13 12 13 17 19 21 21 19 17 15 10 7 7 9 10 10 12 14 18 21 19 15 13 10 9 11 13 16 20 22 22 21 19 15 11 9 10 13 15 15 17 20 18 16 17 16 9 5 6 8 6 4 4 2 5 5 3 5 8 8 7 4 2 2 2 2 2 3 3 1 2
12 13 12 12 12 11 11 13 12 11 12 13 13 12 12 13 11 8 7 8 12 15 18 19 19 18 15 10 7 9 10 11 12 12 11 11 13 12 9 9 10 9 10 13 13 15 18 20 20 19 18 15 14 12 12 14 14 18 21 19 18 17 15 13 8 4 8 10 6 4 2 5 5 4 7 8 8 7 5 3 3 2 3 2 2 2 2 1
11 12 13 13 12 12 12 14 14 13 12 13 12 10 10 9 7 6 6 6 7 9 13 16 17 17 15 11 9 10 10 10 10 12 11 8 7 9 8 7 8 9 9 11 12 13 17 20 20 15 10 8 9 8 10 14 15 17 21 21 21 18 15 15 11 5 8 11 8 5 3 6 5 6 8 9 8 7 4 3 3 1 1 1 1 2 2 2
10 11 12 13 12 12 13 15 16 16 15 14 12 9 9 9 8 7 6 5 6 6 8 12 15 16 15 13 12 11 11 11 9 10 12 11 8 10 9 8 9 10 10 10 10 12 17 22 23 18 10 6 7 8 13 17 17 17 19 21 22 22 18 15 13 10 9 10 11 8 5 6 6 6 7 7 7 5 3 3 4 3 2 2 2 1 2 4
8 9 10 11 12 12 14 15 16 17 18 17 14 11 11 12 11 8 5 5 5 6 7 10 14 16 16 15 15 14 14 14 11 10 11 11 10 9 9 8 9 11 11 12 10 12 17 21 23 24 23 19 15 13 14 17 18 18 19 19 19 21 19 15 14 13 10 10 13 12 8 7 6 5 4 5 6 4 2 3 5 4 4 4 3 2 2 3
9 9 9 9 10 12 14 16 17 18 19 19 17 13 13 14 12 9 8 6 3 5 6 9 14 17 16 15 16 15 15 15 14 13 12 11 11 10 9 8 10 11 11 11 11 14 18 20 21 24 26 25 19 16 15 17 19 20 20 19 18 20 20 17 17 15 11 10 11 11 9 8 7 4 3 3 4 3 2 3 4 3 3 2 1 1 2 3
10 10 10 10 11 11 12 15 16 18 19 20 19 17 17 16 12 10 10 7 1 3 5 8 13 18 18 16 15 15 15 15 15 15 14 12 10 10 10 9 9 11 12 10 13 18 18 19 20 21 24 25 22 17 17 18 18 19 21 20 19 19 21 20 18 14 11 10 8 6 7 8 7 5 3 2 3 2 2 4 3 2 1 1 2 3 4 4
11 11 12 12 13 14 14 15 16 17 18 19 18 18 19 18 15 12 9 6 2 3 4 6 10 14 17 17 15 14 14 14 15 15 15 15 11 8 8 8 9 10 9 8 14 19 18 18 18 19 22 25 23 17 15 18 18 18 19 18 17 18 19 18 15 12 11 10 7 4 6 7 6 5 3 4 5 3 4 6 4 2 1 1 2 4 4 4
12 12 14 14 15 16 16 16 17 17 18 18 18 17 17 18 17 14 8 5 3 4 3 4 6 8 11 13 14 14 14 14 13 11 11 13 12 9 8 9 10 10 8 9 15 18 18 17 17 19 20 22 24 21 18 19 17 16 17 17 17 16 15 16 14 12 12 10 7 7 8 8 8 8 7 7 5 3 5 5 4 3 2 1 2 3 4 4
12 13 14 15 16 17 17 16 17 18 19 19 19 19 17 17 18 16 10 5 4 4 3 4 7 9 9 11 14 15 15 14 14 12 10 10 10 9 8 8 11 11 10 14 18 18 17 16 17 19 18 17 20 22 20 18 16 16 18 18 17 17 16 16 15 13 13 9 6 9 10 8 9 10 7 5 5 4 5 4 3 3 2 0 1 4 5 5
14 13 14 15 16 17 17 17 17 18 19 19 20 20 19 17 18 17 13 7 3 3 3 4 7 12 13 12 14 16 16 15 15 15 13 12 11 9 8 8 10 10 10 14 17 18 17 15 16 19 18 15 16 17 17 15 11 12 17 18 17 17 16 16 14 12 12 10 7 7 6 5 7 9 6 5 5 5 6 4 3 3 2 1 2 5 7 7
Wind_Direction
100 111 121 130 151 191 219 230 236 238 240 241 241 240 237 233 229 225 221 219 218 217 216 211 197 187 174 162 165 165 165 162 151 147 135 126 129 137 141 150 166 176 158 120 84 70 62 59 56 49 47 55 75 85 80 83 106 161 180 195 205 193 179 174 185 191 186 180 175 172 182 165 161 179 174 142 130 129 115 114 126 130 133 135 139 161 169 146
73 79 87 93 96 95 105 185 230 235 239 242 243 243 242 239 235 231 227 222 219 217 217 216 211 201 190 176 166 168 176 173 163 165 155 131 123 134 142 156 181 183 161 148 115 78 66 59 55 47 42 43 59 77 75 79 96 144 176 201 204 189 173 169 181 193 195 186 181 181 191 182 170 188 176 137 141 108 94 94 91 100 110 120 136 154 162 149
55 56 57 59 64 68 66 55 20 2 323 276 261 252 246 242 237 234 231 226 222 218 216 217 216 210 203 196 179 171 179 179 173 177 174 152 131 140 143 141 154 154 144 139 116 90 78 64 57 46 38 35 40 61 73 77 87 122 160 181 177 174 169 173 181 195 202 194 187 188 194 199 190 195 181 146 159 98 80 71 39 43 70 91 123 153 162 158
45 44 42 41 40 37 39 29 10 354 347 343 338 324 289 258 239 233 231 229 225 220 217 216 216 214 209 207 199 183 183 183 181 185 184 167 143 137 133 126 128 132 132 130 113 94 79 65 58 48 40 33 32 45 62 73 82 105 123 138 163 170 170 178 187 193 199 195 192 193 194 204 220 215 199 210 177 82 44 42 33 33 63 68 78 150 168 168
32 32 32 31 27 23 13 359 350 338 335 332 335 336 333 327 299 248 233 229 225 221 218 216 215 214 211 212 212 200 189 192 192 193 193 178 156 143 133 126 125 127 129 123 108 99 85 70 60 52 48 37 30 39 54 63 72 92 112 134 166 178 180 184 191 190 192 196 195 197 197 204 220 228 238 250 226 44 25 44 46 42 78 76 32 139 175 180
21 21 21 20 18 15 4 349 335 325 322 321 325 328 328 327 326 320 278 241 226 220 217 216 215 214 213 212 216 213 203 207 200 194 200 190 170 163 154 140 134 131 129 117 106 106 97 82 69 60 58 48 34 31 45 53 57 71 94 134 156 172 185 188 187 184 190 198 198 197 200 208 215 237 262 268 270 321 22 59 62 39 64 68 47 123 179 187
16 14 14 15 14 11 4 354 335 324 313 314 319 324 327 324 325 327 326 303 238 218 213 214 215 214 213 212 216 218 209 213 212 192 198 195 180 173 171 162 151 138 128 117 113 115 108 94 78 65 61 56 42 31 38 43 46 53 64 117 150 165 182 191 187 181 189 199 201 199 201 209 215 233 256 265 253 235 77 96 129 82 24 36 76 135 170 181
10 9 9 9 9 9 5 359 349 337 321 313 314 321 328 327 329 328 331 342 293 217 208 211 213 214 214 213 216 218 211 212 212 191 192 199 192 177 174 172 161 148 137 132 134 131 114 95 77 69 60 51 47 39 34 35 42 46 45 68 142 168 173 185 188 185 192 199 202 204 206 213 222 234 245 255 247 231 144 154 159 143 21 32 116 153 167 180
359 0 2 1 3 5 6 2 353 343 335 322 315 318 325 329 333 332 331 344 351 218 205 207 210 213 215 215 216 216 212 211 204 188 188 199 200 187 178 178 176 167 152 149 159 154 128 90 77 72 58 44 40 38 33 33 39 44 42 46 65 154 171 175 185 190 194 198 202 207 213 221 231 239 243 248 244 234 209 178 158 131 62 52 152 156 167 177
346 347 349 351 352 355 360 1 355 343 334 330 323 319 323 328 330 333 333 335 351 317 205 204 208 211 214 216 215 214 211 210 206 198 197 198 202 200 186 182 188 184 165 163 169 160 179 38 71 70 58 47 35 28 23 22 17 27 34 35 43 73 160 175 185 192 195 199 203 208 218 227 232 236 240 244 240 229 213 188 151 125 88 91 147 147 157 161
335 336 336 338 339 343 348 350 352 343 331 332 330 322 322 328 326 327 332 329 340 351 212 203 206 209 212 216 215 212 208 208 210 210 210 201 198 200 193 189 189 188 178 175 175 169 196 275 306 335 40 38 24 12 360 357 342 342 360 5 12 23 73 182 195 201 207 210 209 209 219 228 231 235 238 241 240 231 224 207 146 123 109 117 140 143 154 161
326 326 326 327 328 330 334 336 340 336 331 334 335 327 319 323 324 318 320 324 328 333 253 205 206 205 209 212 211 210 208 207 210 212 214 211 206 200 196 194 191 192 190 187 186 189 207 230 255 267 295 325 9 7 356 349 321 314 322 325 327 335 344 278 217 205 213 215 216 215 223 231 232 237 239 238 240 236 230 216 162 130 123 132 149 147 153 163
320 318 317 318 319 321 323 324 325 325 325 333 335 325 317 319 319 310 302 303 309 289 213 202 204 201 203 206 205 207 207 206 208 211 214 217 217 209 201 199 196 195 194 194 193 195 211 223 233 248 266 297 329 326 324 327 315 312 311 310 312 313 314 300 276 235 221 217 220 218 225 236 234 239 240 238 240 239 233 219 184 154 142 143 155 158 153 156
318 315 312 311 311 312 314 315 315 314 315 323 327 318 315 315 310 306 299 291 289 256 210 196 198 196 196 200 201 204 206 207 207 210 214 218 221 218 211 207 202 198 194 195 197 201 217 226 230 243 257 280 298 291 292 299 302 309 307 305 309 311 318 313 288 272 248 231 232 225 231 243 238 241 243 239 242 240 240 235 210 190 165 157 160 165 155 152
317 314 312 309 307 306 307 307 307 307 308 311 312 309 309 309 307 302 300 295 284 262 223 199 195 192 191 192 190 197 205 206 207 211 216 219 223 224 220 217 207 198 197 202 208 214 224 231 236 244 254 268 278 279 286 294 297 302 302 300 308 311 319 321 295 273 258 247 246 231 236 245 235 240 243 241 245 241 240 246 236 223 196 175 172 170 157 154
316 314 311 308 307 305 303 302 301 302 303 303 302 301 302 304 304 301 302 307 297 272 238 215 197 185 184 184 178 182 190 195 204 212 215 218 222 225 223 221 215 200 200 209 216 220 229 236 240 245 252 261 267 272 281 286 288 291 293 297 308 309 309 314 305 284 264 253 249 234 237 238 226 236 243 243 246 244 240 245 245 237 227 210 191 178 169 159
318 314 310 307 305 304 302 299 297 298 298 299 297 297 299 301 303 303 305 312 313 273 229 223 202 186 185 181 169 164 168 175 194 206 211 214 218 222 222 219 217 208 205 211 214 219 227 234 239 242 249 253 253 262 272 276 282 290 306 317 320 316 312 308 309 304 280 267 259 239 237 237 229 235 240 245 247 244 242 243 247 247 243 240 226 197 177 168
321 316 312 307 304 302 301 297 294 294 294 295 296 298 299 301 304 303 305 309 308 277 227 219 207 195 190 179 166 160 162 168 179 193 202 207 210 215 216 213 212 211 209 211 213 215 222 232 237 238 243 245 243 246 253 261 286 313 319 318 317 317 315 312 313 313 296 284 270 251 240 232 232 234 235 242 245 244 246 245 249 255 253 249 246 227 189 173
321 318 315 310 305 302 299 296 293 290 291 293 295 298 299 301 303 302 305 307 301 285 240 219 208 200 196 184 175 172 170 168 173 184 196 202 205 209 210 209 209 210 209 209 212 213 217 229 233 233 235 237 240 245 253 264 280 293 303 308 312 315 314 315 318 313 303 292 273 264 263 225 229 236 234 238 240 242 244 244 244 250 253 251 250 245 215 170
319 318 316 312 307 303 301 297 292 289 288 290 293 296 298 301 303 303 306 308 301 282 246 227 217 207 206 197 188 186 176 166 169 179 190 199 204 207 207 208 207 209 210 209 213 214 216 225 229 228 229 234 243 253 262 270 277 286 295 302 308 309 307 312 315 311 304 290 268 261 257 218 227 238 237 237 238 239 240 241 242 245 250 251 251 251 227 167
315 315 314 312 309 305 303 300 295 291 287 287 290 292 296 299 301 302 304 307 298 281 253 227 221 211 206 204 197 194 186 172 168 172 180 191 199 203 204 206 207 209 210 209 213 215 217 226 227 225 228 235 244 252 260 267 275 284 290 297 301 300 303 309 305 300 297 279 254 243 235 215 222 235 238 240 239 239 240 243 246 247 249 251 250 250 236 197
312 311 310 309 307 304 303 301 297 295 290 288 288 289 292 294 296 297 299 300 275 271 266 231 225 214 205 208 204 200 196 182 172 174 177 183 192 199 203 206 208 209 210 211 215 217 221 228 226 222 229 236 238 243 252 262 272 278 283 290 294 297 302 303 297 289 276 258 237 231 235 218 216 230 237 243 243 242 243 247 251 252 251 250 249 248 242 228
307 307 306 305 303 300 301 298 294 294 293 292 292 292 293 292 294 294 295 294 255 251 264 251 239 216 205 209 208 208 207 194 182 179 178 177 181 193 203 207 209 208 210 213 216 220 224 229 227 225 229 231 235 242 250 260 265 270 280 287 290 294 294 291 293 284 256 242 228 228 241 230 220 232 240 245 247 243 241 244 246 248 248 248 249 250 247 238
305 304 304 302 300 297 296 295 291 288 288 292 294 296 296 294 295 295 297 297 276 244 255 256 247 213 203 207 210 215 215 206 198 188 179 176 171 184 202 209 213 211 211 214 218 225 228 229 228 228 229 234 241 244 248 257 261 269 277 281 282 282 282 285 286 271 244 234 223 224 248 250 239 245 249 247 249 246 242 242 241 242 243 243 243 244 244 240
307 304 302 301 299 296 293 291 286 282 282 285 290 293 294 295 296 298 303 301 291 270 256 250 240 209 199 206 211 211 211 208 200 191 180 172 171 186 199 206 215 215 214 215 219 227 230 229 230 229 230 236 243 242 243 256 269 274 272 274 281 277 271 273 268 247 231 230 225 219 243 264 252 254 254 247 249 250 248 246 244 241 239 239 238 235 234 236
309 306 303 299 297 295 292 288 282 278 276 275 279 282 285 289 292 300 306 306 298 285 260 239 228 211 201 208 209 201 208 206 188 186 181 174 183 200 205 209 215 215 214 215 221 228 230 228 229 231 234 242 251 250 246 255 270 272 269 276 286 271 254 258 255 236 225 230 227 218 225 259 267 258 251 248 250 251 252 253 250 243 237 236 237 235 232 232
311 309 307 300 295 294 290 286 280 275 270 266 266 266 270 273 281 300 308 311 301 277 257 228 212 207 200 199 193 190 199 192 182 186 181 177 189 197 207 217 218 213 208 212 219 224 227 224 225 234 243 254 259 253 244 247 261 267 273 280 280 274 266 266 252 230 226 233 222 216 223 247 272 267 260 255 253 250 250 253 252 247 241 238 237 234 233 233
311 311 313 308 299 293 287 283 277 272 265 260 256 251 251 250 265 295 312 330 302 241 246 216 198 199 193 184 183 188 190 182 182 181 172 179 195 198 204 212 216 209 203 210 214 215 221 224 225 233 242 252 249 242 245 250 257 264 274 274 276 283 275 275 252 225 221 228 226 221 220 232 270 271 273 270 260 255 256 258 255 251 249 248 243 237 233 233
311 311 315 316 306 296 288 281 276 271 261 254 249 241 231 223 234 254 165 223 242 210 218 199 190 193 187 180 182 187 182 179 185 175 169 183 197 201 208 207 202 202 202 215 217 213 220 225 226 231 236 241 233 234 254 257 263 267 271 271 275 277 250 240 234 219 211 226 250 236 223 219 265 274 279 281 270 267 269 268 260 254 253 252 248 242 236 233
310 310 316 320 310 299 291 283 277 270 257 246 239 227 211 209 214 192 158 222 225 211 213 193 185 190 188 184 184 186 178 175 186 184 180 189 197 201 212 214 209 211 214 225 229 226 226 232 239 236 231 233 231 242 255 257 264 255 257 267 267 256 212 196 202 205 195 248 260 255 239 226 252 280 274 271 276 286 284 269 252 247 251 254 250 244 238 234
307 307 315 321 315 304 294 288 281 267 251 236 226 212 202 206 205 182 176 229 221 213 204 188 188 194 193 190 188 186 180 174 184 192 192 194 198 203 210 213 214 217 225 234 237 235 231 236 242 236 231 235 240 256 262 267 258 236 243 253 229 131 123 142 162 172 155 264 259 272 257 227 226 261 263 261 289 300 292 279 258 250 256 259 254 245 238 235
304 304 312 318 316 308 298 294 283 257 241 227 213 202 198 200 208 207 205 220 217 195 173 183 197 204 198 198 199 192 184 181 180 188 200 202 202 205 208 212 211 212 225 232 233 236 237 239 240 236 235 233 235 252 258 260 248 226 225 220 196 101 73 122 141 161 221 247 251 277 265 218 234 261 269 270 283 289 284 284 286 282 277 267 255 244 237 234
302 302 310 314 315 310 300 296 275 248 233 216 205 198 195 194 218 223 216 208 187 171 158 169 196 206 204 204 206 201 193 193 188 185 203 216 215 214 214 218 217 215 221 227 230 239 246 247 239 235 235 227 227 241 244 241 234 224 216 204 190 121 76 261 284 323 267 253 247 259 257 227 253 272 273 265 269 275 279 291 303 307 304 285 256 240 234 231
302 301 307 310 313 311 301 293 266 246 226 209 203 196 194 196 218 229 225 225 213 186 171 169 182 199 209 211 211 208 204 205 203 200 206 217 226 226 221 221 222 221 224 230 236 235 242 247 232 227 230 226 224 228 232 239 237 229 223 213 210 196 168 216 219 203 232 212 197 213 213 234 251 269 283 270 268 278 291 308 319 320 317 303 264 234 226 226
302 301 304 308 313 313 302 287 263 245 223 208 202 197 200 207 213 220 228 223 217 215 220 224 213 205 209 214 216 215 215 216 216 216 216 220 228 229 224 220 217 217 220 226 230 224 233 243 223 217 224 227 227 227 229 236 236 231 222 215 220 223 222 229 216 206 209 136 143 188 211 251 256 263 283 285 286 294 306 319 329 334 334 326 294 232 217 220
303 301 304 308 312 316 308 288 261 242 225 210 203 205 212 216 214 216 219 211 215 225 233 238 237 227 216 217 220 220 221 224 225 224 223 227 234 236 233 227 219 218 219 221 221 215 228 233 212 210 223 226 228 230 230 233 230 224 221 220 227 240 243 235 209 184 179 160 208 214 237 268 277 279 280 284 288 296 312 329 343 352 1 358 335 251 209 211
300 300 302 306 308 314 316 298 266 241 225 214 210 216 223 221 216 217 218 213 213 221 232 241 235 223 214 209 218 220 220 221 225 228 227 228 237 241 239 236 229 225 224 224 224 222 230 235 217 213 227 232 232 233 234 236 232 225 227 227 227 234 235 222 192 102 83 213 247 246 265 277 279 272 290 306 295 296 327 358 11 10 21 26 351 298 209 208
295 296 296 299 301 304 311 304 274 244 225 220 220 225 230 227 223 221 218 216 218 225 246 259 233 206 195 169 171 204 214 218 220 225 228 229 236 242 239 239 237 231 229 229 229 229 236 250 238 223 240 243 231 228 225 222 226 229 233 231 222 214 201 196 188 109 128 209 279 281 278 276 268 260 277 313 189 119 28 37 29 20 29 35 18 305 231 214
292 295 292 291 292 293 295 296 279 250 230 228 229 231 234 235 231 230 230 230 236 249 264 268 255 228 209 190 161 167 200 220 224 226 229 231 234 238 237 238 237 233 232 232 231 229 230 244 251 245 272 229 195 203 207 205 215 226 234 232 220 211 198 195 198 193 164 163 254 304 291 278 276 269 259 212 190 161 44 35 23 21 27 36 45 30 256 233
287 287 283 283 283 281 275 275 277 259 239 237 238 238 242 245 242 238 239 243 246 251 257 260 256 243 229 217 207 193 197 226 231 229 231 234 238 241 242 245 247 247 242 234 233 233 231 237 243 248 282 214 184 195 203 204 209 214 218 218 212 209 203 195 203 205 172 142 162 154 288 280 301 290 221 192 197 213 342 5 4 12 22 31 45 53 257 239
283 280 274 276 275 268 260 259 260 252 243 243 244 243 246 251 247 241 241 245 246 244 244 246 244 239 235 226 214 210 214 226 232 230 231 236 240 242 246 252 256 254 245 236 235 234 230 235 245 251 257 247 221 210 208 212 216 215 213 209 208 211 207 185 194 209 199 185 174 158 249 281 310 303 219 194 198 218 237 312 321 331 5 22 28 39 99 211
279 276 270 267 265 262 254 246 247 249 244 241 244 243 243 247 247 243 241 243 242 238 237 238 234 231 230 225 214 208 210 218 231 239 238 239 241 241 244 249 246 241 240 239 241 238 232 235 245 251 252 254 257 237 219 221 226 224 220 214 210 214 213 204 204 206 197 199 198 168 221 286 293 262 215 194 198 213 221 241 267 286 304 340 7 12 32 183
277 274 271 266 262 264 256 243 245 250 242 236 239 240 243 245 244 244 241 237 238 239 238 234 229 225 224 223 220 210 209 217 229 240 244 247 243 233 229 235 232 233 236 235 238 236 228 229 239 250 254 257 265 260 236 227 225 223 222 220 218 217 218 223 233 219 191 190 183 159 209 278 262 215 202 197 201 211 213 226 244 278 298 301 322 327 319 251
269 270 269 267 265 264 256 245 244 247 242 239 239 236 237 238 235 245 239 218 218 229 235 233 227 221 219 218 214 207 214 226 230 233 234 234 226 203 195 216 230 236 236 233 237 229 217 219 226 236 253 262 260 248 223 216 217 220 222 225 228 226 224 230 235 221 196 193 182 171 225 257 237 203 200 199 203 212 212 209 207 227 301 295 321 309 296 294
263 266 265 264 263 259 253 246 242 244 244 244 245 240 235 227 225 244 242 207 204 221 232 230 223 220 220 217 214 217 228 232 229 230 226 217 205 199 206 226 239 245 243 240 241 224 217 222 220 215 214 215 216 213 211 211 212 220 227 230 231 229 227 232 224 204 200 202 196 201 242 259 232 206 200 199 209 221 209 173 156 134 113 97 68 19 304 299
267 265 264 263 260 256 254 250 245 246 247 248 252 253 248 235 222 226 222 196 209 233 238 226 216 215 218 216 216 224 233 233 230 230 224 214 205 203 212 228 244 255 252 242 233 214 215 224 224 222 223 217 215 220 220 216 215 223 232 233 229 225 224 223 213 204 200 201 211 224 246 259 241 215 200 201 210 213 181 145 139 135 134 125 102 50 347 309
278 263 257 257 254 251 254 253 252 252 252 254 256 256 257 246 224 211 209 203 228 252 234 219 214 213 213 214 216 219 225 231 231 231 231 226 217 211 216 231 250 263 262 247 222 205 209 218 223 230 230 223 224 234 231 223 223 226 228 225 220 218 218 214 211 211 202 202 224 238 244 253 252 229 210 202 197 193 149 132 136 149 158 154 167 318 325 298
285 269 256 248 244 243 246 250 252 253 253 258 260 258 260 254 236 220 210 196 224 271 225 206 207 211 211 211 215 217 221 229 232 232 235 235 229 223 225 236 251 263 272 256 211 200 212 222 221 229 233 228 229 237 232 226 224 221 220 219 215 213 214 213 213 215 214 217 233 246 247 255 252 237 233 183 157 141 142 164 177 187 184 207 275 295 298 289
286 273 262 254 250 245 242 244 250 251 250 254 258 258 261 258 248 240 229 215 205 226 219 199 199 208 212 210 214 220 220 222 228 232 235 237 238 227 215 221 232 247 270 249 201 199 216 222 219 226 231 228 227 227 218 212 209 206 209 213 210 208 210 214 216 219 221 223 228 243 259 261 245 229 207 158 155 173 194 201 217 245 265 286 307 307 300 289
291 276 265 259 259 256 250 246 247 248 248 248 250 253 257 258 252 243 243 261 243 198 193 185 178 192 202 202 210 219 215 212 215 221 229 234 238 231 212 207 213 221 231 212 195 199 212 212 209 218 222 221 223 221 208 204 203 199 199 202 204 206 209 214 219 222 220 221 227 238 251 250 227 208 185 175 191 226 224 225 238 246 258 316 347 323 299 284
300 283 269 262 261 260 258 255 251 250 250 248 248 249 250 254 252 242 233 251 247 199 171 144 143 149 168 189 206 211 206 203 205 204 205 213 223 230 222 208 207 207 202 199 198 202 210 206 200 206 208 206 212 212 204 202 206 205 200 200 204 210 216 222 229 229 223 222 228 230 239 243 222 209 200 206 230 242 229 220 215 217 227 303 350 318 302 286
306 291 276 267 262 260 260 260 257 255 255 253 250 249 248 249 251 246 233 222 214 193 172 150 144 143 152 174 192 195 193 194 197 197 198 202 206 217 221 209 208 207 196 196 201 204 209 205 196 199 200 191 195 202 199 200 209 213 208 206 207 212 218 223 226 222 217 221 228 225 229 234 218 215 224 231 227 226 223 210 187 186 200 234 293 308 306 296
Height
3154 3153 3153 3153 3153 3152 3152 3152 3152 3152 3152 3153 3153 3153 3154 3154 3155 3155 3156 3157 3157 3158 3158 3159 3159 3160 3160 3160 3160 3161 3161 3161 3162 3162 3162 3163 3163 3163 3163 3163 3163 3163 3163 3163 3163 3163 3162 3162 3161 3161 3160 3160 3159 3158 3158 3157 3158 3158 3159 3160 3161 3161 3162 3163 3163 3164 3164 3165 3165 3166 3166 3167 3167 3167 3168 3169 3169 3169 3170 3170 3170 3170 3171 3171 3171 3172 3173 3173
3154 3154 3154 3153 3153 3153 3153 3152 3152 3152 3152 3152 3152 3152 3152 3152 3153 3154 3154 3155 3156 3157 3158 3158 3159 3159 3160 3160 3160 3161 3161 3161 3162 3162 3163 3163 3163 3163 3163 3163 3163 3163 3163 3163 3164 3164 3163 3163 3162 3162 3161 3161 3160 3159 3159 3158 3158 3159 3159 3160 3161 3162 3163 3164 3164 3164 3165 3165 3166 3166 3166 3167 3167 3168 3168 3169 3169 3170 3170 3171 3171 3171 3171 3171 3172 3173 3173 3174
3155 3155 3154 3154 3153 3153 3153 3153 3152 3152 3152 3151 3151 3151 3151 3151 3151 3152 3152 3153 3154 3155 3156 3157 3158 3159 3159 3160 3160 3160 3161 3161 3162 3162 3163 3163 3163 3163 3163 3163 3163 3163 3163 3164 3164 3164 3164 3163 3163 3162 3162 3161 3161 3160 3159 3159 3159 3160 3160 3161 3161 3162 3164 3164 3165 3165 3165 3165 3166 3166 3167 3167 3167 3168 3169 3169 3170 3170 3171 3171 3172 3172 3172 3172 3173 3173 3174 3175
3156 3155 3155 3154 3154 3154 3153 3153 3153 3152 3152 3152 3151 3151 3150 3150 3150 3150 3150 3151 3152 3153 3155 3156 3157 3158 3159 3159 3160 3160 3161 3161 3162 3162 3162 3163 3164 3164 3163 3163 3163 3164 3164 3165 3165 3165 3164 3164 3163 3163 3162 3162 3162 3161 3161 3160 3160 3161 3161 3162 3162 3163 3164 3164 3165 3165 3165 3166 3166 3167 3167 3167 3168 3168 3169 3169 3170 3171 3171 3172 3172 3172 3173 3173 3174 3174 3175 3175
3156 3156 3155 3155 3154 3154 3153 3153 3153 3152 3152 3152 3151 3151 3150 3150 3150 3149 3149 3149 3150 3151 3153 3154 3155 3157 3158 3159 3159 3160 3161 3161 3161 3162 3162 3163 3164 3164 3164 3164 3164 3165 3165 3165 3165 3165 3165 3164 3164 3163 3163 3163 3163 3162 3161 3161 3161 3162 3162 3162 3163 3163 3164 3165 3165 3165 3166 3166 3167 3167 3168 3168 3168 3168 3169 3170 3171 3171 3172 3172 3172 3172 3173 3173 3174 3175 3175 3176
3156 3156 3155 3155 3154 3154 3153 3153 3153 3152 3152 3151 3151 3151 3150 3150 3149 3149 3148 3148 3148 3149 3150 3152 3154 3155 3156 3158 3158 3159 3160 3161 3161 3161 3162 3163 3163 3164 3164 3165 3165 3165 3166 3166 3166 3165 3165 3165 3164 3164 3164 3163 3163 3163 3162 3162 3162 3163 3163 3163 3163 3164 3164 3165 3165 3166 3166 3167 3167 3167 3168 3168 3168 3168 3168 3170 3171 3171 3172 3172 3172 3172 3173 3174 3174 3175 3176 3176
3156 3156 3155 3155 3154 3154 3153 3153 3152 3152 3152 3151 3151 3150 3150 3149 3149 3148 3148 3147 3147 3147 3148 3150 3152 3153 3155 3156 3157 3158 3160 3160 3161 3161 3162 3163 3163 3164 3164 3165 3165 3165 3166 3166 3166 3166 3165 3165 3165 3164 3164 3163 3163 3163 3163 3163 3163 3163 3164 3164 3164 3164 3164 3165 3165 3166 3167 3167 3167 3168 3168 3168 3169 3169 3169 3170 3171 3172 3172 3172 3172 3173 3173 3174 3174 3175 3176 3176
3156 3156 3155 3155 3154 3154 3153 3153 3152 3152 3151 3151 3150 3150 3149 3149 3148 3148 3147 3147 3146 3146 3147 3148 3150 3152 3153 3155 3156 3157 3159 3160 3161 3161 3161 3162 3163 3164 3164 3165 3165 3166 3166 3166 3166 3166 3166 3165 3165 3165 3164 3164 3164 3164 3164 3164 3164 3164 3164 3164 3164 3165 3165 3165 3166 3166 3167 3167 3167 3168 3168 3169 3169 3169 3169 3170 3171 3172 3172 3172 3172 3173 3173 3174 3175 3175 3175 3176
3156 3156 3155 3154 3154 3153 3153 3152 3152 3151 3151 3150 3150 3150 3149 3149 3148 3148 3147 3147 3146 3146 3146 3147 3149 3150 3152 3153 3155 3157 3159 3160 3160 3160 3161 3162 3163 3164 3164 3165 3165 3166 3166 3166 3166 3166 3166 3166 3165 3165 3165 3165 3164 3164 3164 3164 3165 3165 3165 3165 3165 3165 3166 3166 3166 3167 3167 3167 3168 3168 3168 3169 3169 3169 3169 3170 3171 3171 3172 3172 3173 3173 3174 3174 3174 3175 3176 3176
3156 3156 3155 3154 3154 3153 3152 3152 3151 3151 3150 3150 3150 3149 3149 3148 3148 3147 3147 3146 3146 3146 3146 3147 3148 3149 3150 3152 3153 3155 3157 3158 3159 3160 3161 3162 3163 3163 3164 3165 3165 3166 3166 3167 3167 3167 3166 3166 3166 3165 3165 3165 3165 3165 3165 3165 3165 3166 3166 3166 3166 3166 3166 3166 3167 3167 3167 3167 3168 3168 3168 3168 3168 3169 3169 3170 3170 3171 3172 3172 3173 3173 3174 3174 3175 3175 3176 3177
3156 3155 3155 3154 3153 3153 3152 3151 3151 3150 3150 3150 3149 3149 3148 3148 3148 3147 3147 3146 3146 3146 3146 3146 3147 3148 3149 3150 3152 3154 3155 3157 3158 3159 3160 3161 3162 3163 3163 3164 3165 3165 3166 3167 3167 3167 3166 3166 3166 3165 3165 3165 3165 3165 3165 3165 3166 3166 3167 3167 3167 3167 3167 3167 3167 3168 3168 3168 3168 3168 3168 3168 3168 3168 3169 3170 3170 3172 3172 3172 3173 3173 3174 3175 3176 3176 3177 3177
3156 3155 3154 3153 3153 3152 3152 3151 3150 3150 3149 3149 3149 3148 3148 3148 3147 3147 3146 3146 3146 3146 3146 3146 3146 3147 3148 3149 3150 3152 3154 3155 3157 3158 3159 3160 3161 3162 3163 3164 3164 3165 3166 3167 3167 3167 3166 3166 3166 3166 3165 3165 3165 3165 3166 3166 3166 3167 3167 3167 3167 3167 3167 3167 3167 3167 3167 3168 3168 3168 3168 3167 3167 3168 3169 3169 3170 3171 3172 3172 3173 3173 3174 3175 3176 3177 3177 3178
3155 3154 3154 3153 3152 3151 3151 3150 3150 3149 3149 3149 3148 3148 3147 3147 3147 3147 3146 3146 3146 3145 3145 3145 3146 3146 3147 3148 3149 3150 3152 3153 3155 3156 3158 3159 3160 3161 3162 3163 3164 3164 3165 3166 3167 3167 3166 3166 3166 3166 3166 3166 3166 3166 3166 3166 3167 3167 3167 3167 3167 3167 3167 3167 3167 3167 3167 3167 3167 3168 3168 3167 3167 3167 3168 3169 3169 3171 3171 3172 3173 3173 3174 3175 3176 3177 3178 3178
3154 3153 3153 3152 3152 3151 3150 3149 3149 3148 3148 3148 3148 3147 3147 3146 3146 3146 3146 3146 3145 3145 3145 3145 3145 3146 3146 3147 3148 3149 3151 3152 3154 3156 3157 3159 3159 3161 3162 3163 3163 3164 3164 3165 3166 3166 3166 3166 3166 3166 3166 3166 3166 3166 3167 3167 3167 3167 3167 3167 3167 3167 3168 3167 3167 3167 3167 3167 3167 3168 3167 3167 3168 3167 3167 3168 3169 3170 3171 3172 3173 3173 3174 3175 3176 3177 3178 3178
3153 3152 3152 3151 3151 3150 3149 3148 3148 3147 3147 3147 3147 3146 3146 3146 3146 3145 3145 3145 3145 3145 3145 3145 3145 3145 3146 3147 3148 3149 3150 3152 3154 3155 3156 3158 3159 3160 3161 3162 3162 3163 3164 3165 3165 3165 3165 3165 3165 3166 3166 3166 3166 3166 3167 3167 3167 3167 3167 3167 3167 3167 3168 3168 3168 3167 3167 3167 3167 3168 3167 3167 3168 3167 3167 3168 3169 3170 3170 3171 3172 3173 3174 3175 3176 3177 3178 3178
3152 3151 3150 3150 3150 3149 3148 3147 3146 3146 3146 3146 3146 3145 3145 3145 3145 3145 3145 3145 3145 3145 3145 3145 3145 3145 3146 3146 3147 3148 3149 3151 3152 3153 3154 3156 3157 3158 3159 3160 3161 3162 3163 3163 3164 3164 3164 3164 3165 3165 3165 3166 3166 3166 3167 3167 3166 3166 3167 3167 3167 3167 3167 3168 3168 3168 3167 3167 3167 3167 3167 3167 3167 3166 3166 3167 3168 3169 3170 3170 3172 3173 3174 3175 3176 3177 3178 3178
3150 3150 3149 3148 3148 3148 3147 3147 3145 3145 3144 3144 3144 3144 3144 3144 3144 3144 3144 3145 3145 3145 3145 3145 3145 3145 3145 3146 3146 3147 3148 3149 3150 3151 3153 3154 3155 3156 3158 3159 3160 3161 3161 3162 3163 3163 3163 3163 3164 3165 3165 3165 3166 3166 3167 3166 3166 3166 3167 3167 3167 3167 3167 3167 3167 3168 3167 3167 3167 3167 3167 3167 3167 3167 3166 3167 3168 3169 3169 3170 3171 3172 3173 3174 3175 3176 3177 3177
3149 3148 3148 3147 3147 3146 3146 3145 3144 3143 3143 3143 3143 3143 3143 3143 3143 3143 3143 3144 3144 3144 3144 3144 3144 3145 3145 3145 3146 3147 3147 3148 3148 3149 3150 3152 3153 3154 3156 3157 3158 3159 3160 3161 3162 3163 3163 3162 3163 3164 3164 3164 3165 3166 3166 3166 3166 3166 3166 3166 3166 3166 3166 3166 3167 3167 3167 3167 3167 3167 3167 3167 3167 3167 3166 3167 3167 3168 3169 3170 3170 3171 3172 3173 3174 3175 3176 3176
3148 3147 3146 3145 3145 3145 3144 3144 3143 3142 3141 3141 3142 3142 3142 3142 3142 3142 3142 3142 3143 3143 3143 3143 3143 3144 3144 3144 3145 3146 3146 3146 3147 3148 3148 3149 3151 3152 3154 3155 3156 3157 3158 3160 3161 3162 3162 3162 3162 3163 3162 3163 3164 3165 3166 3166 3166 3166 3166 3166 3166 3165 3164 3164 3165 3166 3166 3166 3166 3167 3167 3167 3167 3167 3166 3166 3167 3167 3168 3169 3170 3171 3171 3172 3173 3174 3175 3176
3146 3146 3145 3144 3143 3143 3143 3142 3141 3141 3140 3140 3140 3141 3141 3140 3140 3140 3140 3140 3141 3141 3141 3141 3142 3143 3143 3144 3144 3145 3145 3146 3146 3147 3147 3148 3149 3150 3152 3153 3154 3156 3157 3159 3160 3160 3161 3160 3160 3161 3162 3163 3165 3165 3166 3166 3166 3166 3165 3165 3165 3164 3163 3163 3164 3165 3165 3165 3165 3166 3166 3167 3166 3166 3166 3166 3166 3166 3167 3168 3169 3169 3170 3171 3173 3174 3175 3176
3145 3144 3144 3143 3142 3141 3141 3141 3140 3139 3139 3138 3138 3139 3139 3139 3139 3138 3138 3138 3138 3138 3139 3140 3140 3141 3142 3142 3143 3143 3144 3145 3145 3146 3146 3146 3147 3148 3150 3151 3152 3154 3156 3158 3158 3159 3159 3159 3159 3160 3162 3164 3164 3165 3165 3165 3165 3165 3165 3164 3164 3163 3162 3163 3163 3163 3164 3164 3165 3165 3165 3166 3166 3166 3165 3165 3165 3165 3166 3167 3167 3168 3169 3170 3172 3173 3175 3176
3143 3143 3142 3141 3140 3139 3139 3139 3138 3138 3137 3137 3137 3137 3137 3137 3137 3137 3137 3137 3136 3135 3136 3137 3137 3138 3140 3140 3141 3142 3143 3144 3144 3145 3145 3145 3145 3147 3148 3149 3151 3153 3155 3156 3156 3158 3158 3157 3158 3161 3162 3163 3164 3164 3164 3165 3165 3164 3164 3164 3162 3161 3162 3162 3162 3163 3163 3164 3164 3164 3164 3165 3165 3165 3164 3164 3164 3164 3165 3166 3166 3167 3168 3169 3170 3172 3174 3175
3142 3141 3140 3139 3138 3138 3137 3137 3137 3136 3135 3135 3135 3135 3135 3135 3135 3135 3135 3135 3135 3134 3134 3135 3135 3137 3138 3139 3139 3141 3142 3143 3143 3144 3144 3144 3145 3146 3147 3148 3150 3152 3153 3154 3155 3156 3156 3155 3158 3160 3161 3162 3163 3163 3164 3164 3164 3163 3163 3163 3161 3160 3161 3161 3162 3163 3163 3163 3164 3163 3163 3164 3164 3164 3163 3163 3163 3164 3164 3164 3165 3165 3166 3167 3169 3171 3172 3174
3139 3139 3138 3138 3137 3136 3135 3135 3135 3134 3134 3134 3134 3133 3134 3133 3133 3133 3132 3132 3133 3133 3132 3132 3133 3135 3136 3137 3138 3139 3141 3142 3142 3143 3143 3144 3144 3145 3146 3148 3149 3150 3152 3153 3154 3154 3154 3155 3158 3159 3160 3161 3161 3162 3163 3163 3162 3162 3162 3162 3160 3160 3160 3160 3161 3162 3162 3162 3162 3163 3163 3162 3162 3162 3162 3162 3162 3162 3163 3163 3163 3163 3164 3166 3167 3169 3170 3172
3137 3137 3136 3136 3135 3134 3133 3133 3133 3133 3133 3132 3132 3132 3132 3132 3132 3131 3131 3130 3130 3131 3131 3130 3132 3133 3134 3134 3136 3138 3140 3141 3141 3142 3143 3143 3144 3144 3145 3147 3148 3149 3150 3152 3153 3152 3152 3155 3157 3158 3159 3160 3160 3161 3161 3162 3161 3161 3161 3160 3159 3159 3160 3160 3160 3161 3161 3161 3161 3163 3163 3161 3160 3161 3161 3161 3161 3161 3162 3161 3161 3162 3163 3164 3165 3167 3168 3170
3135 3134 3134 3134 3133 3132 3131 3131 3131 3131 3131 3131 3131 3131 3131 3131 3131 3131 3131 3129 3128 3128 3128 3128 3130 3131 3131 3133 3134 3137 3139 3139 3140 3141 3142 3142 3143 3143 3144 3145 3146 3147 3149 3151 3151 3150 3150 3153 3156 3157 3158 3158 3159 3159 3160 3161 3160 3159 3159 3159 3159 3158 3159 3159 3159 3160 3160 3160 3160 3162 3162 3160 3159 3160 3160 3160 3160 3160 3160 3160 3160 3161 3161 3162 3163 3165 3167 3168
3132 3132 3132 3131 3131 3130 3129 3129 3129 3129 3129 3129 3129 3130 3130 3130 3131 3130 3131 3130 3127 3126 3126 3126 3128 3129 3130 3132 3134 3136 3137 3137 3139 3140 3140 3141 3142 3143 3144 3144 3145 3146 3148 3149 3149 3148 3149 3152 3154 3155 3156 3157 3157 3157 3158 3159 3159 3158 3158 3158 3158 3158 3158 3158 3158 3159 3159 3159 3160 3160 3161 3160 3159 3158 3159 3159 3159 3159 3159 3159 3159 3159 3159 3160 3161 3163 3165 3167
3130 3130 3129 3129 3128 3128 3127 3126 3127 3127 3128 3128 3128 3129 3129 3130 3130 3130 3131 3130 3126 3125 3125 3125 3126 3127 3129 3131 3133 3135 3136 3136 3137 3138 3139 3141 3141 3142 3142 3143 3145 3146 3147 3147 3147 3147 3149 3151 3153 3154 3155 3155 3156 3156 3157 3157 3157 3157 3157 3157 3158 3157 3157 3157 3157 3158 3158 3159 3159 3159 3160 3161 3159 3157 3158 3158 3157 3157 3157 3157 3158 3158 3158 3158 3159 3161 3163 3165
3128 3127 3127 3127 3125 3125 3125 3124 3124 3125 3126 3126 3127 3128 3129 3129 3130 3130 3132 3130 3125 3124 3125 3125 3126 3126 3127 3130 3132 3134 3135 3135 3136 3137 3138 3139 3140 3140 3141 3143 3144 3146 3146 3146 3146 3147 3149 3150 3152 3152 3153 3153 3154 3155 3155 3156 3156 3155 3156 3156 3156 3156 3156 3156 3157 3158 3159 3159 3158 3158 3159 3160 3158 3156 3156 3156 3155 3156 3156 3156 3156 3157 3157 3157 3158 3159 3160 3163
3126 3125 3125 3125 3123 3123 3122 3122 3122 3123 3123 3124 3125 3126 3128 3128 3129 3130 3131 3128 3124 3124 3124 3125 3125 3126 3126 3128 3130 3132 3133 3134 3136 3137 3137 3138 3139 3140 3141 3142 3144 3144 3145 3145 3145 3146 3148 3149 3149 3150 3151 3152 3153 3153 3154 3155 3154 3154 3155 3155 3155 3155 3155 3156 3157 3158 3160 3159 3157 3157 3158 3159 3158 3155 3155 3155 3155 3155 3155 3155 3155 3155 3155 3155 3156 3156 3158 3160
3125 3123 3123 3123 3122 3120 3120 3120 3120 3121 3121 3122 3123 3125 3126 3127 3128 3129 3128 3124 3123 3124 3124 3124 3125 3125 3126 3127 3128 3130 3132 3133 3134 3135 3136 3137 3137 3138 3139 3140 3142 3143 3144 3144 3144 3145 3146 3147 3147 3148 3150 3151 3151 3152 3153 3154 3154 3153 3154 3155 3155 3155 3155 3157 3157 3158 3160 3159 3156 3156 3157 3158 3158 3155 3154 3154 3154 3154 3154 3154 3153 3153 3153 3153 3153 3154 3155 3157
3123 3122 3121 3120 3120 3118 3118 3118 3118 3118 3119 3120 3122 3123 3124 3126 3126 3125 3123 3122 3122 3123 3123 3124 3124 3125 3126 3127 3128 3129 3130 3131 3133 3134 3135 3136 3136 3136 3137 3138 3139 3141 3141 3141 3142 3143 3144 3144 3146 3147 3148 3149 3150 3151 3151 3152 3153 3153 3154 3154 3154 3155 3157 3158 3158 3159 3159 3157 3156 3156 3156 3157 3156 3153 3153 3154 3153 3153 3153 3153 3152 3152 3152 3151 3151 3152 3153 3155
3121 3120 3120 3118 3117 3117 3116 3116 3116 3116 3117 3118 3120 3121 3122 3124 3122 3120 3121 3122 3122 3122 3122 3123 3123 3124 3125 3126 3127 3129 3130 3131 3132 3133 3134 3135 3135 3135 3136 3137 3138 3139 3140 3140 3142 3142 3143 3143 3144 3144 3145 3146 3147 3148 3149 3150 3151 3152 3152 3153 3153 3155 3158 3160 3160 3160 3158 3155 3155 3156 3157 3156 3154 3152 3152 3152 3152 3152 3152 3152 3151 3151 3150 3149 3148 3149 3151 3154
3118 3118 3118 3117 3116 3115 3114 3114 3114 3114 3115 3116 3117 3119 3120 3120 3118 3118 3120 3121 3121 3121 3121 3122 3122 3123 3124 3125 3126 3127 3128 3130 3131 3132 3133 3133 3134 3134 3134 3135 3136 3137 3138 3140 3140 3141 3141 3140 3140 3142 3143 3144 3145 3146 3148 3149 3150 3151 3151 3152 3152 3153 3155 3157 3157 3157 3156 3154 3155 3156 3156 3154 3152 3152 3152 3151 3151 3152 3151 3151 3150 3149 3149 3147 3146 3147 3149 3151
3116 3115 3116 3115 3114 3113 3112 3112 3112 3112 3113 3114 3116 3117 3116 3116 3116 3118 3119 3119 3120 3120 3120 3121 3121 3122 3123 3123 3125 3126 3127 3128 3129 3131 3131 3131 3131 3132 3132 3133 3134 3136 3137 3138 3138 3139 3139 3138 3138 3140 3141 3142 3144 3145 3147 3148 3149 3149 3150 3150 3150 3151 3152 3153 3153 3153 3153 3153 3154 3155 3154 3152 3151 3151 3151 3151 3151 3151 3151 3150 3150 3149 3148 3147 3145 3145 3147 3150
3114 3113 3113 3113 3112 3111 3111 3111 3110 3111 3111 3113 3114 3113 3112 3114 3116 3117 3117 3118 3118 3118 3119 3119 3120 3121 3121 3122 3123 3124 3125 3127 3128 3129 3129 3130 3130 3130 3130 3131 3133 3134 3135 3136 3137 3137 3137 3136 3137 3139 3140 3141 3143 3144 3145 3146 3147 3147 3148 3148 3149 3150 3150 3151 3151 3152 3152 3153 3153 3153 3152 3151 3151 3151 3150 3151 3151 3151 3151 3150 3150 3149 3148 3147 3146 3146 3147 3150
3113 3112 3112 3111 3110 3110 3109 3109 3109 3109 3110 3111 3111 3111 3111 3114 3115 3116 3116 3117 3117 3117 3117 3118 3118 3119 3119 3120 3120 3121 3123 3124 3126 3127 3127 3128 3128 3128 3128 3130 3131 3132 3133 3134 3135 3136 3136 3135 3136 3138 3139 3140 3141 3142 3143 3144 3145 3146 3146 3146 3148 3149 3149 3149 3151 3152 3153 3154 3153 3151 3151 3150 3150 3150 3150 3150 3150 3151 3151 3151 3150 3150 3148 3148 3147 3148 3148 3150
3111 3110 3110 3109 3108 3108 3108 3108 3108 3108 3109 3109 3109 3110 3111 3112 3114 3115 3115 3115 3116 3116 3116 3116 3117 3117 3118 3118 3118 3119 3120 3121 3123 3124 3125 3126 3126 3125 3127 3128 3129 3130 3132 3134 3135 3135 3135 3135 3136 3137 3137 3137 3138 3139 3140 3142 3143 3144 3145 3146 3146 3147 3147 3148 3149 3151 3153 3155 3153 3151 3150 3149 3149 3149 3149 3150 3150 3151 3151 3151 3150 3150 3149 3148 3148 3149 3149 3150
3108 3108 3108 3107 3107 3107 3107 3107 3107 3107 3107 3107 3108 3108 3109 3110 3112 3113 3114 3114 3114 3114 3114 3115 3116 3116 3116 3117 3117 3117 3118 3119 3121 3122 3123 3124 3124 3123 3125 3127 3128 3129 3130 3132 3133 3134 3135 3135 3135 3135 3135 3135 3135 3136 3138 3139 3141 3143 3144 3145 3145 3146 3146 3147 3148 3148 3150 3153 3153 3151 3150 3148 3147 3148 3149 3150 3150 3150 3150 3150 3150 3150 3150 3149 3149 3150 3150 3151
3105 3106 3105 3105 3105 3105 3106 3106 3106 3106 3106 3106 3106 3107 3107 3108 3110 3111 3112 3112 3112 3112 3112 3113 3114 3115 3115 3116 3116 3116 3117 3118 3119 3120 3121 3121 3121 3122 3124 3125 3127 3128 3129 3130 3131 3132 3134 3134 3133 3134 3134 3134 3134 3135 3136 3137 3139 3140 3142 3143 3144 3145 3145 3146 3147 3147 3147 3150 3152 3152 3150 3147 3147 3147 3148 3149 3150 3150 3150 3150 3150 3150 3150 3150 3150 3150 3150 3151
3103 3103 3103 3103 3103 3103 3104 3104 3104 3105 3104 3105 3105 3105 3106 3106 3107 3108 3109 3110 3110 3110 3111 3111 3112 3113 3113 3114 3115 3115 3116 3116 3117 3118 3118 3119 3119 3121 3123 3124 3125 3126 3127 3128 3129 3130 3132 3132 3132 3132 3133 3133 3134 3134 3136 3137 3138 3139 3139 3141 3142 3143 3144 3145 3146 3146 3147 3147 3149 3151 3149 3147 3147 3147 3147 3148 3149 3149 3150 3150 3149 3149 3149 3150 3150 3150 3151 3151
3100 3101 3101 3101 3101 3101 3102 3102 3103 3103 3103 3103 3103 3103 3104 3104 3104 3106 3107 3108 3108 3108 3108 3109 3110 3111 3112 3113 3113 3114 3114 3114 3115 3116 3117 3117 3118 3119 3121 3123 3124 3125 3125 3126 3127 3128 3130 3131 3131 3131 3131 3132 3133 3134 3135 3136 3137 3139 3139 3140 3141 3142 3143 3144 3144 3145 3146 3146 3147 3149 3148 3146 3146 3147 3147 3147 3148 3149 3149 3149 3149 3149 3149 3149 3150 3150 3151 3151
3098 3098 3099 3099 3099 3100 3100 3100 3101 3101 3101 3101 3101 3102 3102 3103 3104 3105 3106 3106 3106 3106 3107 3107 3108 3109 3110 3111 3112 3112 3113 3113 3114 3114 3115 3116 3116 3118 3120 3121 3122 3123 3123 3123 3124 3126 3128 3130 3130 3130 3130 3131 3131 3133 3134 3135 3136 3138 3138 3139 3140 3141 3142 3142 3143 3144 3144 3145 3146 3148 3147 3146 3145 3146 3146 3147 3148 3148 3149 3149 3149 3149 3149 3149 3149 3149 3150 3151
3096 3096 3096 3097 3097 3098 3098 3098 3099 3099 3100 3099 3100 3101 3101 3102 3103 3103 3103 3104 3104 3105 3105 3105 3106 3108 3108 3110 3110 3111 3111 3112 3112 3113 3114 3115 3116 3117 3118 3119 3120 3120 3121 3121 3122 3123 3125 3126 3128 3130 3130 3130 3131 3132 3133 3133 3134 3136 3137 3138 3139 3140 3141 3142 3143 3143 3143 3144 3145 3146 3146 3145 3145 3145 3146 3146 3147 3148 3149 3149 3148 3149 3149 3149 3149 3149 3150 3150
3094 3094 3094 3095 3095 3096 3096 3096 3097 3097 3098 3098 3099 3100 3100 3101 3101 3101 3102 3103 3103 3103 3103 3103 3104 3106 3106 3107 3108 3109 3110 3111 3111 3111 3112 3113 3115 3116 3116 3117 3118 3118 3119 3119 3120 3121 3122 3123 3124 3126 3127 3128 3129 3129 3129 3131 3132 3134 3135 3136 3137 3138 3140 3141 3142 3142 3142 3143 3144 3144 3144 3143 3144 3145 3146 3146 3147 3148 3148 3148 3148 3149 3149 3149 3149 3149 3149 3150
3093 3093 3092 3092 3093 3093 3093 3094 3095 3095 3096 3096 3098 3099 3099 3099 3099 3100 3101 3102 3101 3101 3100 3101 3102 3103 3104 3105 3105 3107 3108 3109 3110 3110 3110 3112 3113 3114 3115 3115 3116 3116 3117 3117 3118 3119 3119 3120 3121 3123 3124 3124 3125 3125 3127 3129 3130 3131 3132 3133 3135 3136 3138 3140 3140 3140 3141 3142 3142 3142 3142 3143 3143 3144 3145 3146 3147 3147 3148 3148 3148 3148 3148 3148 3148 3148 3149 3149
3091 3091 3091 3091 3091 3091 3091 3092 3092 3093 3094 3094 3096 3097 3096 3096 3098 3099 3100 3100 3100 3099 3099 3099 3100 3101 3101 3103 3104 3105 3107 3108 3108 3108 3109 3110 3112 3113 3114 3114 3114 3114 3114 3115 3116 3117 3117 3117 3119 3121 3121 3122 3124 3125 3126 3127 3128 3129 3130 3131 3133 3134 3136 3137 3138 3138 3139 3140 3140 3141 3142 3142 3143 3143 3144 3145 3146 3146 3147 3147 3148 3148 3148 3148 3148 3148 3148 3149
3089 3089 3090 3090 3090 3089 3090 3090 3090 3091 3092 3092 3093 3094 3094 3095 3097 3098 3098 3099 3098 3098 3097 3097 3097 3097 3099 3101 3102 3103 3105 3106 3106 3107 3108 3109 3110 3111 3112 3113 3113 3112 3112 3113 3114 3114 3115 3116 3117 3119 3120 3122 3124 3125 3125 3126 3126 3127 3128 3130 3131 3133 3134 3135 3136 3137 3138 3139 3139 3140 3141 3141 3142 3142 3143 3144 3145 3146 3146 3146 3147 3147 3147 3147 3147 3148 3148 3148
3087 3087 3088 3088 3088 3088 3088 3089 3089 3090 3090 3091 3091 3091 3092 3093 3095 3096 3096 3097 3097 3097 3096 3095 3095 3095 3097 3099 3101 3102 3103 3104 3104 3105 3107 3107 3108 3110 3111 3112 3112 3112 3111 3111 3112 3113 3114 3114 3115 3117 3119 3121 3123 3124 3124 3125 3125 3126 3127 3129 3130 3132 3133 3134 3136 3136 3137 3137 3138 3139 3139 3140 3141 3142 3142 3143 3144 3145 3145 3146 3146 3146 3146 3146 3147 3147 3147 3147
3086 3086 3086 3086 3086 3086 3087 3087 3088 3088 3089 3089 3089 3090 3090 3092 3093 3095 3096 3096 3096 3096 3095 3094 3094 3094 3096 3098 3099 3100 3101 3102 3103 3104 3105 3106 3107 3108 3109 3110 3111 3111 3111 3111 3112 3113 3113 3113 3114 3116 3118 3120 3121 3123 3123 3124 3124 3125 3126 3127 3129 3131 3132 3133 3134 3135 3135 3136 3137 3137 3138 3138 3139 3140 3141 3142 3143 3144 3144 3145 3145 3146 3146 3146 3146 3146 3146 3146
3084 3084 3083 3084 3084 3084 3084 3085 3086 3086 3086 3087 3087 3088 3089 3090 3091 3093 3095 3095 3094 3094 3094 3094 3094 3094 3095 3096 3097 3098 3099 3100 3101 3102 3103 3104 3105 3107 3108 3109 3110 3110 3110 3110 3111 3112 3112 3112 3113 3115 3117 3118 3119 3121 3122 3123 3124 3124 3125 3125 3127 3128 3129 3131 3132 3133 3134 3135 3135 3136 3136 3137 3138 3139 3140 3141 3142 3143 3144 3144 3144 3145 3145 3145 3145 3145 3145 3145
3082 3081 3081 3082 3082 3082 3083 3083 3083 3084 3084 3084 3085 3086 3087 3088 3089 3090 3093 3093 3093 3093 3093 3093 3093 3093 3093 3094 3095 3096 3097 3098 3099 3100 3101 3102 3103 3105 3107 3108 3108 3109 3109 3109 3110 3111 3111 3112 3112 3113 3115 3116 3118 3119 3121 3122 3123 3123 3123 3124 3125 3126 3128 3129 3130 3131 3132 3132 3133 3134 3134 3135 3137 3138 3139 3140 3141 3142 3142 3143 3143 3144 3144 3144 3144 3144 3144 3144